Bedford, MA

1:35 AM EDT on June 19, 2018 (GMT -0400)
Hanscom

Weather History for KBED - August, 2017

Change the Weather History Date:

Sunday, August 13, 2017

  Actual Average Record
Temperature  
Mean Temperature 72 °F -  
Max Temperature 84 °F 80 °F 98 °F (2002)
Min Temperature 61 °F 58 °F 45 °F (1957)
Cooling Degree Days 7    
Growing Degree Days 22 (Base 50)    
Moisture  
Dew Point 60 °F    
Average Humidity 64    
Maximum Humidity 87    
Minimum Humidity 37    
Precipitation  
Precipitation 0.00 in - - ()
Sea Level Pressure  
Sea Level Pressure 29.92 in    
Wind  
Wind Speed 8 mph (West)    
Max Wind Speed 16 mph    
Max Gust Speed -    
Visibility 10 miles    
Events      
Averages and records for this station are not official NWS values.
T = Trace of Precipitation, MM = Missing Value Source: NWS Daily Summary

Daily Weather History Graph

Daily Weather History Graph

Search for Another Location

Airport or City:

Astronomy

Aug. 13, 2017 Rise Set
Actual Time 5:50 AM EDT 7:48 PM EDT
Civil Twilight 5:19 AM EDT 8:19 PM EDT
Nautical Twilight 4:42 AM EDT 8:56 PM EDT
Astronomical Twilight 4:01 AM EDT 9:37 PM EDT
Moon 11:13 PM EDT (8/13) 11:53 AM EDT (8/13)
Length of Visible Light 14h 59m
Length of Day
13h 58m
Waning Gibbous, 65% of the Moon is Illuminated
Aug 13
Waning Gibbous
Aug 14
Last Quarter
Aug 21
New
Aug 29
First Quarter
Sep 6
Full

Hourly Weather History & Observations

Time (EDT) Temp. Heat Index Dew Point Humidity Pressure Visibility Wind Dir Wind Speed Gust Speed Precip Events Conditions
12:56 AM 70.0 °F - 64.0 °F 81% 29.88 in 10.0 mi SW 9.2 mph - N/A   Partly Cloudy
1:56 AM 70.0 °F - 64.0 °F 81% 29.87 in 10.0 mi SSW 10.4 mph - N/A   Mostly Cloudy
2:56 AM 71.1 °F - 64.0 °F 78% 29.87 in 10.0 mi SW 10.4 mph - N/A   Overcast
3:56 AM 70.0 °F - 64.9 °F 84% 29.86 in 10.0 mi SW 6.9 mph - N/A   Overcast
4:56 AM 69.1 °F - 64.9 °F 87% 29.85 in 10.0 mi SW 5.8 mph - N/A   Mostly Cloudy
5:56 AM 68.0 °F - 64.0 °F 87% 29.87 in 10.0 mi Calm Calm - N/A   Partly Cloudy
6:56 AM 69.1 °F - 64.9 °F 87% 29.88 in 10.0 mi West 3.5 mph - N/A   Clear
7:56 AM 73.0 °F - 66.0 °F 79% 29.89 in 10.0 mi WSW 5.8 mph - N/A   Scattered Clouds
8:56 AM 75.0 °F - 63.0 °F 66% 29.89 in 10.0 mi West 8.1 mph - N/A   Clear
9:56 AM 77.0 °F - 64.0 °F 64% 29.90 in 10.0 mi WNW 8.1 mph - N/A   Clear
10:56 AM 79.0 °F - 61.0 °F 54% 29.90 in 10.0 mi WNW 11.5 mph - N/A   Scattered Clouds
11:56 AM 81.0 °F 81.3 °F 59.0 °F 47% 29.90 in 10.0 mi West 12.7 mph - N/A   Partly Cloudy
12:56 PM 82.9 °F 82.6 °F 57.9 °F 42% 29.89 in 10.0 mi WNW 16.1 mph - N/A   Clear
1:56 PM 82.9 °F 82.1 °F 55.9 °F 39% 29.89 in 10.0 mi West 12.7 mph - N/A   Partly Cloudy
2:56 PM 82.9 °F 82.6 °F 57.9 °F 42% 29.90 in 10.0 mi NW 10.4 mph - N/A   Scattered Clouds
3:56 PM 82.9 °F 82.1 °F 55.9 °F 39% 29.91 in 10.0 mi WNW 11.5 mph - N/A   Clear
4:56 PM 82.9 °F 81.9 °F 54.0 °F 37% 29.92 in 10.0 mi NW 9.2 mph - N/A   Clear
5:56 PM 81.0 °F 80.5 °F 54.0 °F 39% 29.94 in 10.0 mi NW 10.4 mph - N/A   Clear
6:56 PM 78.1 °F - 55.9 °F 46% 29.96 in 10.0 mi NW 8.1 mph - N/A   Clear
7:56 PM 73.0 °F - 54.0 °F 51% 29.97 in 10.0 mi WNW 5.8 mph - N/A   Clear
8:56 PM 66.0 °F - 55.9 °F 70% 29.99 in 10.0 mi NNW 3.5 mph - N/A   Clear
9:56 PM 62.1 °F - 57.0 °F 84% 30.01 in 10.0 mi Calm Calm - N/A   Clear
10:56 PM 62.1 °F - 55.9 °F 80% 30.03 in 10.0 mi Calm Calm - N/A   Clear
11:56 PM 61.0 °F - 55.9 °F 83% 30.03 in 10.0 mi Calm Calm - N/A   Clear